Location: Canon Road
(40.7761°N, 111.8849°W)
Time: 15:05:53
(UTC+00:00)

N. Korean satellite - Visible Passes

Search period start: 05 April 2020 00:00
Search period end: 15 April 2020 00:00
Orbit: 454 x 507 km, 97.2° (Epoch: 04 April)

Date Brightness Start Highest point End Pass type
(mag) Time Alt. Az. Time Alt. Az. Time Alt. Az.
06 Apr 9.3 12:31:44 10° NE 12:34:29 22° E 12:37:14 10° SSE visible
07 Apr 10.1 12:07:56 10° ENE 12:08:41 11° E 12:09:28 10° ESE visible
10 Apr 9.6 12:22:58 10° NE 12:25:19 17° E 12:27:40 10° SE visible
14 Apr 9.8 12:14:19 10° ENE 12:16:08 14° E 12:17:55 10° SE visible
